Date String (YYYY-MM-DD hh:mm:ss) UTC,Instrument flags,absolute air pressure of the measurement (hPa),sample flow rate (lpm),inlet stack bypass flow (lpm),air temperature of the measurement (°C),ambient temperature measured by the external sensor (°C),aerosol sample conditioner tube jacket temperature (°C),OPC LED temperature (°C),internal box temperature (°C),relative humidity of the measurement (%),span deviation,mass concentration of particles derived from Lorenz-Mie calculation of OPC scattering (μg/m³),mass concentration of particles derived from Lorenz-Mie calculation of OPC scattering (μg/m³),mass concentration of particles derived from Lorenz-Mie calculation of OPC scattering (μg/m³)
DateTimeUTC,F1_M11,P_M11,Q1_M11,Q2_M11,T1_M11,T2_M11,T3_M11,T4_M11,T5_M11,U1_M11,ZSPAN_M11,X0_M11,X2_M11,X1_M11
2024-05-26 20:00:00,SystemResetWarning,0826.8,5.00,000.00,028.3,027.6,000.0,036.5,030.1,012.0,0000.0,0007.48,0002.47,0001.95
2024-05-26 20:01:00,SystemResetWarning,0826.8,5.00,000.00,028.3,027.6,000.0,036.5,030.1,011.9,0000.0,0007.51,0002.48,0001.94
2024-05-26 20:02:00,SystemResetWarning,0826.8,4.99,000.00,028.4,027.6,000.0,036.5,030.1,012.2,0000.0,0007.50,0002.47,0001.93
2024-05-26 20:03:00,SystemResetWarning,0826.7,5.00,000.00,028.4,027.6,000.0,036.5,030.1,012.3,0000.0,0007.53,0002.47,0001.92
2024-05-26 20:04:00,SystemResetWarning,0826.8,5.01,000.00,028.4,027.7,000.0,036.5,030.1,012.7,0000.0,0008.09,0002.51,0001.92
2024-05-26 20:05:00,SystemResetWarning,0826.9,5.01,000.00,028.4,027.7,000.0,036.5,030.1,012.6,0000.0,0007.94,0002.48,0001.93
2024-05-26 20:06:00,SystemResetWarning,0826.9,5.00,000.00,028.4,027.7,000.0,036.5,030.1,012.4,0000.0,0007.44,0002.45,0001.93
2024-05-26 20:07:00,SystemResetWarning,0826.8,5.00,000.00,028.4,027.7,000.0,036.5,030.1,011.3,0000.0,0007.81,0002.47,0001.94
2024-05-26 20:08:00,SystemResetWarning,0826.9,4.99,000.00,028.4,027.7,000.0,036.5,030.1,011.2,0000.0,0007.72,0002.45,0001.93
2024-05-26 20:09:00,SystemResetWarning,0826.9,4.99,000.00,028.5,027.7,000.0,036.6,030.1,011.4,0000.0,0006.74,0002.50,0001.93
2024-05-26 20:10:00,SystemResetWarning,0826.8,5.00,000.00,028.5,027.7,000.0,036.6,030.2,011.2,0000.0,0006.73,0002.56,0001.95
2024-05-26 20:11:00,SystemResetWarning,0826.8,5.00,000.00,028.5,027.7,000.0,036.6,030.2,011.4,0000.0,0006.53,0002.55,0001.95
2024-05-26 20:12:00,SystemResetWarning,0826.8,5.00,000.00,028.5,027.8,000.0,036.6,030.2,011.0,0000.0,0006.55,0002.52,0001.95
2024-05-26 20:13:00,SystemResetWarning,0826.8,5.00,000.00,028.5,027.8,000.0,036.6,030.2,011.2,0000.0,0006.69,0002.53,0001.95
2024-05-26 20:14:00,SystemResetWarning,0826.9,5.00,000.00,028.5,027.8,000.0,036.6,030.2,012.0,0000.0,0006.67,0002.52,0001.94
2024-05-26 20:15:00,SystemResetWarning,0827.0,5.00,000.00,028.5,027.8,000.0,036.7,030.2,011.9,0000.0,0005.95,0002.50,0001.94
2024-05-26 20:16:00,SystemResetWarning,0827.0,5.00,000.00,028.6,027.8,000.0,036.7,030.2,011.7,0000.0,0005.28,0002.45,0001.91
2024-05-26 20:17:00,SystemResetWarning,0826.9,5.00,000.00,028.6,027.8,000.0,036.7,030.2,011.8,0000.0,0005.19,0002.44,0001.90
2024-05-26 20:18:00,SystemResetWarning,0826.9,5.00,000.00,028.6,027.8,000.0,036.7,030.3,011.8,0000.0,0004.33,0002.41,0001.89
2024-05-26 20:19:00,SystemResetWarning,0826.9,5.00,000.00,028.6,027.9,000.0,036.7,030.3,011.8,0000.0,0004.33,0002.41,0001.89
2024-05-26 20:20:00,SystemResetWarning,0826.9,5.00,000.00,028.6,027.9,000.0,036.7,030.3,011.7,0000.0,0004.13,0002.38,0001.89
2024-05-26 20:21:00,SystemResetWarning,0826.9,5.00,000.00,028.6,027.9,000.0,036.7,030.3,011.9,0000.0,0003.84,0002.35,0001.89
2024-05-26 20:22:00,SystemResetWarning,0826.9,5.00,000.00,028.6,027.9,000.0,036.7,030.3,011.8,0000.0,0003.77,0002.36,0001.88
2024-05-26 20:23:00,SystemResetWarning,0826.8,5.00,000.00,028.6,027.9,000.0,036.8,030.3,011.7,0000.0,0003.74,0002.39,0001.88
2024-05-26 20:24:00,SystemResetWarning,0826.9,5.00,000.00,028.7,027.9,000.0,036.8,030.4,011.7,0000.0,0003.54,0002.37,0001.88
2024-05-26 20:25:00,SystemResetWarning,0826.7,5.00,000.00,028.7,027.9,000.0,036.8,030.4,011.9,0000.0,0003.56,0002.38,0001.89
2024-05-26 20:26:00,SystemResetWarning,0826.8,5.00,000.00,028.7,027.9,000.0,036.8,030.4,011.1,0000.0,0003.61,0002.41,0001.89
2024-05-26 20:27:00,SystemResetWarning,0826.8,5.01,000.00,028.7,027.9,000.0,036.8,030.3,011.0,0000.0,0003.66,0002.43,0001.89
2024-05-26 20:28:00,SystemResetWarning,0826.8,5.00,000.00,028.7,028.0,000.0,036.8,030.4,011.3,0000.0,0003.94,0002.43,0001.89
2024-05-26 20:29:00,SystemResetWarning,0826.8,4.99,000.00,028.7,028.0,000.0,036.8,030.4,012.0,0000.0,0004.36,0002.47,0001.89
2024-05-26 20:30:00,SystemResetWarning,0826.8,4.99,000.00,028.7,028.0,000.0,036.8,030.4,012.2,0000.0,0004.40,0002.46,0001.87
2024-05-26 20:31:00,SystemResetWarning,0826.8,4.99,000.00,028.7,028.0,000.0,036.8,030.5,012.2,0000.0,0004.28,0002.43,0001.87
2024-05-26 20:32:00,SystemResetWarning,0826.8,5.00,000.00,028.7,028.0,000.0,036.9,030.5,011.8,0000.0,0004.23,0002.41,0001.88
2024-05-26 20:33:00,SystemResetWarning,0826.8,5.00,000.00,028.7,028.0,000.0,036.9,030.5,012.0,0000.0,0004.11,0002.36,0001.86
2024-05-26 20:34:00,SystemResetWarning,0826.8,5.01,000.00,028.8,028.0,000.0,036.9,030.5,012.0,0000.0,0003.95,0002.28,0001.85
2024-05-26 20:35:00,SystemResetWarning,0826.9,5.00,000.00,028.8,028.0,000.0,036.9,030.5,011.9,0000.0,0003.99,0002.30,0001.85
2024-05-26 20:36:00,SystemResetWarning,0826.8,5.01,000.00,028.8,028.0,000.0,036.9,030.5,011.9,0000.0,0003.97,0002.32,0001.86
2024-05-26 20:37:00,SystemResetWarning,0826.7,5.00,000.00,028.8,028.0,000.0,036.9,030.5,011.9,0000.0,0003.96,0002.32,0001.85
2024-05-26 20:38:00,SystemResetWarning,0826.6,5.00,000.00,028.8,028.0,000.0,037.0,030.5,011.8,0000.0,0003.87,0002.29,0001.86
2024-05-26 20:39:00,SystemResetWarning,0826.6,4.99,000.00,028.8,028.0,000.0,037.0,030.5,011.7,0000.0,0003.78,0002.26,0001.86
2024-05-26 20:40:00,SystemResetWarning,0826.6,4.99,000.00,028.8,028.0,000.0,037.0,030.5,011.9,0000.0,0003.22,0002.25,0001.86
2024-05-26 20:41:00,SystemResetWarning,0826.6,5.00,000.00,028.8,028.0,000.0,037.0,030.5,012.1,0000.0,0003.17,0002.22,0001.85
2024-05-26 20:42:00,SystemResetWarning,0826.7,5.01,000.00,028.8,028.1,000.0,037.0,030.5,012.0,0000.0,0004.73,0002.25,0001.84
2024-05-26 20:43:00,SystemResetWarning,0826.8,5.01,000.00,028.8,028.1,000.0,037.0,030.5,012.4,0000.0,0005.16,0002.28,0001.83
2024-05-26 20:44:00,SystemResetWarning,0826.8,5.00,000.00,028.8,028.1,000.0,037.0,030.5,012.0,0000.0,0005.10,0002.26,0001.82
2024-05-26 20:45:00,SystemResetWarning,0826.7,4.99,000.00,028.8,028.1,000.0,037.0,030.5,012.0,0000.0,0005.23,0002.31,0001.82
2024-05-26 20:46:00,SystemResetWarning,0826.8,5.00,000.00,028.8,028.1,000.0,037.1,030.5,012.3,0000.0,0005.33,0002.30,0001.82
2024-05-26 20:47:00,SystemResetWarning,0826.8,5.00,000.00,028.9,028.1,000.0,037.1,030.6,012.3,0000.0,0005.59,0002.26,0001.80
2024-05-26 20:48:00,SystemResetWarning,0826.8,5.00,000.00,028.9,028.1,000.0,037.1,030.6,012.4,0000.0,0005.50,0002.22,0001.79
2024-05-26 20:49:00,SystemResetWarning,0826.6,5.00,000.00,028.9,028.1,000.0,037.1,030.6,011.7,0000.0,0005.51,0002.21,0001.77
2024-05-26 20:50:00,SystemResetWarning,0826.6,5.00,000.00,028.9,028.1,000.0,037.1,030.6,011.5,0000.0,0005.53,0002.21,0001.76
2024-05-26 20:51:00,SystemResetWarning,0826.6,5.00,000.00,028.9,028.1,000.0,037.1,030.6,011.4,0000.0,0005.54,0002.23,0001.75
2024-05-26 20:52:00,SystemResetWarning,0826.6,4.99,000.00,028.9,028.1,000.0,037.1,030.6,011.8,0000.0,0005.52,0002.23,0001.76
2024-05-26 20:53:00,SystemResetWarning,0826.6,5.01,000.00,028.9,028.1,000.0,037.1,030.6,011.6,0000.0,0004.44,0002.20,0001.75
2024-05-26 20:54:00,SystemResetWarning,0826.6,5.00,000.00,028.9,028.2,000.0,037.2,030.6,011.4,0000.0,0004.48,0002.19,0001.74
2024-05-26 20:55:00,SystemResetWarning,0826.7,5.00,000.00,028.9,028.2,000.0,037.2,030.6,011.4,0000.0,0004.69,0002.24,0001.73
2024-05-26 20:56:00,SystemResetWarning,0826.7,5.01,000.00,028.9,028.2,000.0,037.2,030.6,011.4,0000.0,0004.60,0002.20,0001.72
2024-05-26 20:57:00,SystemResetWarning,0826.7,4.99,000.00,028.9,028.2,000.0,037.2,030.7,011.8,0000.0,0004.56,0002.20,0001.71
2024-05-26 20:58:00,SystemResetWarning,0826.6,4.99,000.00,029.0,028.2,000.0,037.2,030.7,011.7,0000.0,0004.31,0002.21,0001.70
2024-05-26 20:59:00,SystemResetWarning,0826.7,4.99,000.00,029.0,028.2,000.0,037.2,030.7,011.5,0000.0,0004.29,0002.20,0001.70
